Date,TemperatureHighF,TemperatureAvgF,TemperatureLowF,DewpointHighF,DewpointAvgF,DewpointLowF,HumidityHigh,HumidityAvg,HumidityLow,PressureMaxIn,PressureMinIn,WindSpeedMaxMPH,WindSpeedAvgMPH,GustSpeedMaxMPH,PrecipitationSumIn
2013-1-1,77.8,73.5,71.6,69.0,65.2,60.6,87,75,67,31.16,31.00,9,4,13,0.00
2013-1-2,80.8,74.6,70.9,70.7,68.9,67.2,90,83,70,31.06,30.97,6,2,12,0.00
2013-1-3,81.0,76.9,74.1,72.5,71.9,71.1,93,85,74,31.10,30.99,4,2,7,0.00
2013-1-4,80.8,75.9,72.8,73.9,72.2,70.5,94,88,78,31.18,31.07,5,2,7,0.00
2013-1-5,80.2,76.0,74.2,73.0,71.5,70.0,91,86,76,31.19,31.09,7,4,12,0.00
2013-1-6,80.5,76.7,74.3,73.5,71.7,70.4,91,85,77,31.13,31.00,9,5,14,0.00
2013-1-7,81.0,76.4,74.0,71.2,70.0,68.8,88,81,70,31.10,31.00,5,3,12,0.00
2013-1-8,79.2,76.9,74.9,73.8,72.0,70.1,90,85,79,31.14,31.00,11,6,17,0.00
2013-1-9,77.2,76.6,76.2,72.6,71.8,71.1,87,85,83,31.11,31.08,12,8,16,0.00
2013-1-10,79.1,77.1,75.2,71.5,69.7,67.9,83,78,71,31.24,31.09,11,7,20,0.00
2013-1-11,79.7,76.5,74.7,70.8,68.0,62.4,85,75,61,31.19,31.09,11,7,18,0.00
2013-1-12,79.0,75.9,74.3,70.3,68.9,67.2,84,79,71,31.12,31.02,7,5,16,0.00
2013-1-13,79.2,75.6,74.1,69.9,66.4,61.8,84,73,61,31.07,31.01,12,6,16,0.00
2013-1-14,78.9,75.3,73.6,67.6,65.5,62.7,80,72,64,31.11,31.06,11,5,16,0.00
2013-1-15,74.6,74.3,73.8,67.7,66.8,65.8,80,78,75,31.09,31.05,7,5,16,0.00
2013-1-16,79.8,76.1,73.4,71.9,69.6,64.8,87,80,73,31.06,30.97,7,4,12,0.03
2013-1-17,78.4,73.2,64.9,72.3,68.3,60.3,96,85,71,31.08,30.96,4,2,10,0.34
2013-1-18,67.9,62.7,59.5,60.6,55.2,51.9,86,77,61,31.23,31.08,5,2,12,0.00
2013-1-19,77.1,69.6,65.6,67.8,64.7,59.9,94,85,70,31.20,31.06,4,1,8,0.00
2013-1-20,79.0,71.9,67.0,70.7,68.4,65.5,96,89,75,31.13,30.98,6,1,9,0.00
2013-1-21,80.0,72.8,69.0,71.6,68.4,64.7,94,86,72,31.05,30.95,5,2,9,0.00
2013-1-22,76.8,69.6,64.4,65.3,62.6,59.4,93,79,63,31.17,30.99,6,3,13,0.00
2013-1-23,74.2,69.2,64.7,62.4,59.3,56.5,86,72,57,31.25,31.14,7,4,15,0.00
2013-1-24,75.6,68.3,63.3,62.3,60.5,58.8,87,77,59,31.28,31.16,6,3,11,0.00
2013-1-25,76.0,70.0,64.5,62.7,59.1,56.0,82,69,52,31.26,31.14,7,4,12,0.00
2013-1-26,77.2,70.6,64.8,67.0,63.7,60.1,90,79,64,31.22,31.12,6,3,11,0.00
2013-1-27,75.6,73.1,72.0,68.6,67.8,66.6,87,83,78,31.21,31.13,7,4,13,0.00
2013-1-28,78.0,75.3,72.9,68.7,67.4,65.6,81,77,71,31.26,31.16,8,6,14,0.00
2013-1-29,78.0,75.3,74.0,71.1,68.5,66.2,82,79,77,31.18,31.07,12,8,17,0.00
2013-1-30,78.8,75.4,73.5,71.3,68.5,65.3,89,79,71,31.08,30.92,12,6,18,0.00
2013-1-31,79.3,72.7,66.3,73.7,67.1,56.1,91,83,70,31.14,30.92,6,3,14,0.00
2013-2-1,73.0,65.9,59.2,61.2,55.4,50.3,75,69,54,31.23,31.12,8,5,16,0.00
2013-2-2,74.9,67.4,61.2,60.1,57.9,55.2,87,73,53,31.23,31.09,7,3,13,0.00
2013-2-3,75.1,67.7,63.9,62.3,57.1,45.5,91,70,47,31.16,31.03,6,2,10,0.00
2013-2-4,73.8,66.9,60.6,57.9,53.4,48.9,75,62,48,31.13,31.00,7,4,11,0.00
2013-2-5,77.5,71.0,63.1,66.1,62.6,56.3,87,75,61,31.06,30.98,5,2,8,0.00
2013-2-6,78.7,73.6,66.8,69.5,66.5,64.1,92,79,68,31.07,30.98,6,3,10,0.00
2013-2-7,78.9,74.1,69.5,69.0,67.2,64.8,94,79,69,31.05,30.91,7,3,11,0.00
2013-2-8,81.3,75.3,70.7,73.5,70.8,64.5,93,86,73,31.01,30.90,5,2,10,0.00
2013-2-9,79.2,72.9,66.4,70.8,66.2,61.9,90,80,71,31.11,30.98,9,5,16,0.00
2013-2-10,77.8,74.3,72.4,67.8,65.6,63.2,81,75,63,31.19,31.09,11,7,17,0.00
2013-2-11,77.3,74.4,72.3,69.0,67.8,65.7,85,80,74,31.17,31.07,12,8,18,0.00
2013-2-12,81.9,76.5,73.5,72.5,70.3,67.0,90,81,72,31.09,30.94,9,4,16,0.00
2013-2-13,82.3,77.0,74.4,74.3,72.4,70.9,93,86,74,30.99,30.89,6,3,11,0.00
2013-2-14,82.8,76.8,65.0,75.7,72.6,63.3,95,87,77,30.97,30.86,9,3,14,0.08
2013-2-15,76.2,69.1,65.2,70.7,67.1,63.7,97,93,82,30.98,30.89,6,2,13,0.73
2013-2-16,73.7,67.4,60.0,68.1,61.3,51.9,97,82,59,31.08,30.85,7,3,10,0.10
2013-2-17,59.9,58.7,57.8,52.5,51.2,49.2,78,76,73,31.10,31.08,7,5,13,0.10
2013-2-18,70.1,68.0,62.6,58.2,55.5,51.3,72,64,55,31.30,31.18,9,6,21,0.00
2013-2-19,75.0,71.4,68.2,68.3,64.7,57.3,90,80,67,31.18,31.06,10,5,13,0.00
2013-2-20,76.8,69.7,65.9,70.2,66.9,64.7,97,91,79,31.09,31.01,6,1,10,0.17
2013-2-21,72.2,72.1,72.1,66.7,66.6,66.6,83,83,83,30.98,30.98,2,2,10,0.00
2013-2-22,78.7,76.0,74.9,72.7,71.7,70.9,90,87,81,31.03,30.98,9,6,13,0.00
2013-2-23,82.5,77.2,74.5,75.6,72.8,70.3,94,86,77,31.01,30.89,8,4,13,0.00
2013-2-24,83.6,77.8,73.5,75.8,74.0,72.3,97,88,75,30.97,30.86,3,1,12,0.00
2013-2-25,83.5,77.6,75.6,75.4,73.8,72.5,94,88,75,30.87,30.81,5,3,12,0.00
2013-2-26,83.5,79.6,75.9,76.3,74.6,71.5,92,85,78,30.88,30.79,6,3,12,0.00
2013-2-27,83.8,77.8,72.6,75.3,72.7,69.5,93,85,72,30.93,30.82,6,2,12,0.00
2013-2-28,74.5,70.0,65.0,70.7,56.8,48.4,91,65,43,30.98,30.89,6,2,12,0.00
2013-3-1,68.7,66.5,61.8,60.1,57.8,55.1,89,74,67,30.95,30.89,4,2,8,0.03
2013-3-2,66.6,60.0,57.0,52.7,47.9,43.2,70,65,56,31.06,30.96,8,3,17,0.00
2013-3-3,66.2,58.3,52.0,52.3,48.9,43.4,91,71,60,31.16,30.96,7,2,17,0.00
2013-3-4,66.6,57.5,49.9,51.3,47.2,42.3,80,69,43,31.25,31.13,7,3,17,0.00
2013-3-5,72.5,63.8,58.0,58.8,55.3,50.8,89,74,59,31.18,31.09,8,2,17,0.00
2013-3-6,75.0,67.0,58.9,66.4,59.7,51.5,95,78,68,31.11,31.00,5,2,17,0.00
2013-3-7,68.9,59.7,52.6,54.4,48.2,42.3,82,67,44,31.20,31.08,6,3,17,0.00
2013-3-8,74.1,63.7,56.5,60.9,56.0,50.8,87,77,58,31.20,31.10,4,2,17,0.00
2013-3-9,75.7,67.7,61.7,61.9,58.6,54.4,86,73,59,31.17,31.08,7,3,17,0.00
2013-3-10,75.1,71.9,68.4,62.6,59.8,56.0,75,66,58,31.11,31.01,7,6,17,0.00
2013-3-11,75.2,71.9,69.4,67.3,63.4,59.6,81,75,69,31.06,30.91,10,7,17,0.00
2013-3-12,80.5,74.8,71.3,70.9,68.3,64.0,91,81,71,30.99,30.88,7,4,17,0.00
2013-3-13,76.8,69.2,60.7,68.3,59.7,51.1,93,73,44,31.10,30.95,6,3,17,0.00
2013-3-14,73.6,65.3,57.7,59.7,51.1,42.6,79,62,34,31.19,31.08,8,4,17,0.00
2013-3-15,71.9,62.0,58.2,54.3,50.6,45.4,83,67,46,31.25,31.15,7,4,20,0.00
2013-3-16,73.8,70.7,69.0,59.4,57.0,54.5,68,62,55,31.18,31.07,8,4,17,0.00
2013-3-17,76.9,71.8,68.6,66.0,62.0,57.2,80,72,61,31.12,30.99,9,6,17,0.00
2013-3-18,78.9,74.0,72.3,71.8,68.8,65.2,93,84,77,31.04,30.93,10,4,17,0.00
2013-3-19,75.3,71.9,67.9,72.1,68.8,65.6,97,90,78,30.99,30.88,6,2,17,0.76
2013-3-20,80.0,70.9,65.7,69.4,66.3,63.6,94,86,69,30.96,30.88,4,1,17,0.01
2013-3-21,76.1,71.2,65.3,64.3,62.4,60.4,94,74,61,30.92,30.83,4,2,17,0.00
2013-3-22,80.1,75.4,71.6,73.2,69.3,61.3,94,82,70,30.96,30.86,6,3,10,0.00
2013-3-23,84.3,78.0,74.4,76.3,74.1,72.9,95,88,73,30.95,30.77,5,3,10,0.00
2013-3-24,85.0,79.2,75.9,76.9,75.0,73.5,96,87,73,30.85,30.67,11,4,18,0.00
2013-3-25,83.5,76.7,71.1,75.2,70.4,50.7,95,82,49,30.96,30.71,6,2,13,0.14
2013-3-26,72.7,64.4,56.8,54.8,48.9,42.6,72,58,40,31.20,30.95,8,5,17,0.02
2013-3-27,69.3,62.8,53.6,52.3,47.2,40.9,73,58,41,31.22,31.17,6,2,13,0.00
2013-3-28,72.6,61.2,56.8,53.1,49.4,44.3,78,66,45,31.25,31.16,6,4,16,0.00
2013-3-29,75.4,68.4,62.8,59.2,55.7,51.3,76,64,55,31.26,31.17,8,5,13,0.00
2013-3-30,75.0,71.9,67.8,59.7,57.2,54.5,69,60,50,31.23,31.12,8,5,12,0.00
2013-3-31,79.0,73.5,70.1,70.0,65.0,58.5,88,75,66,31.16,31.00,10,6,15,0.00
2013-4-1,82.7,76.2,70.9,74.7,71.4,67.8,93,85,73,31.04,30.93,6,2,10,0.01
2013-4-2,83.8,75.2,70.8,70.2,68.1,66.0,91,79,57,31.06,30.96,4,1,9,0.00
2013-4-3,79.2,75.8,73.7,72.7,70.2,68.1,86,83,79,31.05,30.96,9,5,15,0.00
2013-4-4,84.2,78.2,75.0,76.6,73.4,70.2,93,86,77,31.01,30.89,8,4,13,0.00
2013-4-5,76.9,71.1,65.6,74.7,68.1,63.5,97,91,75,30.94,30.77,9,3,13,1.86
2013-4-6,77.9,69.8,62.3,66.8,62.7,59.2,92,79,59,31.05,30.91,7,3,12,0.00
2013-4-7,80.5,74.1,72.6,68.2,66.2,65.0,80,76,67,31.08,30.96,8,6,15,0.00
2013-4-11,38.0,36.9,36.2,33.2,32.5,31.9,88,84,79,29.65,29.62,6,5,10,0.03
2013-10-28,84.0,80.6,76.5,71.5,69.8,68.6,78,70,62,31.08,31.00,6,3,11,0.00
2013-10-29,84.2,78.8,74.0,71.9,70.1,66.8,89,75,62,31.12,31.02,6,3,14,0.00
2013-10-30,84.2,79.9,76.4,71.1,69.3,67.0,77,70,61,31.10,31.01,7,5,12,0.00
2013-10-31,84.8,80.5,78.2,73.5,71.8,69.4,82,75,66,31.05,30.92,7,4,14,0.00
2013-11-1,87.3,81.2,76.5,75.3,73.2,71.6,88,77,65,30.95,30.83,5,3,11,0.00
2013-11-2,88.3,80.4,73.9,75.4,72.6,70.1,89,78,63,30.89,30.77,3,1,11,0.00
2013-11-3,81.7,76.2,71.7,74.1,67.2,62.6,91,74,62,30.95,30.83,7,4,16,0.00
2013-11-4,84.0,77.1,72.2,72.5,68.0,62.6,95,75,52,31.01,30.91,7,4,14,0.34
2013-11-5,79.6,77.6,73.8,73.6,72.0,69.0,92,83,76,30.99,30.91,11,6,20,0.07
2013-11-6,83.5,78.8,74.9,75.4,73.2,71.3,91,83,75,30.98,30.90,9,5,15,0.01
2013-11-7,85.9,78.2,74.4,75.1,72.9,71.2,93,84,65,30.97,30.86,3,1,11,0.00
2013-11-8,84.1,78.0,73.1,75.1,72.1,69.4,90,82,70,30.97,30.88,6,3,11,0.00
2013-11-9,83.7,78.7,75.7,76.3,73.9,71.7,93,85,76,31.02,30.93,7,3,13,0.14
2013-11-10,81.2,77.9,76.0,76.2,74.4,73.1,94,89,84,31.04,30.95,6,3,15,0.14
2013-11-11,83.5,78.4,75.0,76.4,73.7,71.8,93,86,78,31.04,30.97,8,3,14,0.00
2013-11-12,84.5,78.7,74.6,76.8,74.1,71.8,94,86,75,31.01,30.90,5,2,11,0.05
2013-11-15,77.8,76.2,74.7,72.7,70.5,66.6,92,82,74,31.07,30.94,9,6,16,0.09
2013-11-16,81.5,78.1,74.8,73.8,72.1,68.0,89,82,75,31.02,30.93,12,5,17,0.00
2013-11-17,82.3,78.8,76.4,74.2,72.3,70.3,85,81,73,31.02,30.93,7,4,13,0.00
2013-11-18,84.2,79.0,74.8,73.5,72.1,70.3,89,80,68,30.97,30.86,4,2,13,0.00
2013-11-19,85.4,78.4,74.1,74.0,71.9,70.3,92,81,64,30.90,30.81,3,0,13,0.00
2013-11-20,84.3,78.5,72.7,74.7,72.0,70.0,96,81,66,31.00,30.86,4,1,13,0.00
2013-11-21,83.2,79.2,74.3,73.7,71.6,68.3,95,78,64,31.07,30.99,5,3,13,0.10
2013-11-22,78.4,76.0,73.4,74.2,72.8,70.7,96,90,79,31.07,30.98,8,4,13,0.97
2013-11-23,82.2,78.2,72.2,74.7,72.8,69.7,94,84,73,31.01,30.90,7,3,13,0.13
2013-11-24,82.8,75.8,70.7,73.8,70.9,68.7,95,85,66,31.07,30.92,7,3,13,0.56
2013-11-25,77.2,74.6,70.9,71.7,69.5,66.7,94,84,77,31.10,30.98,13,8,20,0.14
2013-11-26,82.8,78.4,73.0,76.7,73.9,69.8,94,86,78,30.98,30.80,10,6,18,0.29
2013-11-27,78.5,72.7,65.5,76.0,67.6,58.1,98,85,66,31.07,30.77,6,2,13,1.71
2013-11-28,71.2,62.8,55.6,64.1,57.2,52.3,90,82,72,31.21,31.07,6,4,13,0.00
2013-11-29,75.8,70.0,65.4,66.6,63.9,61.8,89,81,71,31.23,31.12,6,3,11,0.00
2013-11-30,80.1,71.1,65.1,71.5,66.9,63.0,95,87,74,31.16,31.04,5,3,11,0.09
2013-12-1,81.1,72.1,66.9,72.3,68.0,64.7,94,87,71,31.07,30.92,4,1,11,0.00
2013-12-2,78.0,70.4,66.0,69.3,66.0,63.0,96,86,70,30.92,30.80,1,0,11,0.00
2013-12-3,81.5,73.2,63.4,69.0,66.6,61.6,95,80,63,30.98,30.88,4,1,11,0.00
2013-12-4,81.0,76.7,74.1,72.1,69.4,66.3,85,78,70,31.05,30.94,5,2,8,0.00
2013-12-5,81.1,77.5,75.2,72.3,70.4,69.0,85,79,70,31.11,31.01,6,3,13,0.00
2013-12-6,80.6,77.8,76.2,72.5,70.8,68.5,85,79,72,31.13,31.01,9,6,15,0.00
2013-12-7,81.6,77.4,74.8,73.2,71.0,68.7,90,81,73,31.16,31.07,7,4,14,0.01
2013-12-8,81.5,77.9,75.2,72.7,71.1,68.6,91,80,70,31.15,31.06,10,5,18,0.02
2013-12-9,81.1,78.4,76.9,72.1,71.0,68.2,85,78,69,31.14,31.04,11,6,15,0.00
2013-12-10,82.3,78.7,76.6,75.2,73.2,71.0,89,83,76,31.10,31.03,8,4,13,0.00
2013-12-11,80.8,77.9,74.4,75.1,73.8,70.1,93,87,82,31.14,31.05,9,4,15,0.14
2013-12-12,77.6,77.4,77.2,73.9,73.4,72.8,89,88,86,31.10,31.06,4,3,7,0.00
2013-12-30,78.8,75.6,74.1,73.9,72.3,71.5,94,90,84,31.08,30.99,2,0,4,0.00
2013-12-31,78.7,72.7,69.0,73.7,70.1,65.9,96,91,83,31.16,31.05,7,3,13,0.29
2014-1-1,81.5,77.6,72.9,75.1,72.8,70.3,93,85,78,31.13,30.99,8,5,14,0.05
2014-1-2,80.8,76.4,73.0,73.3,70.9,69.4,94,83,75,30.99,30.89,8,3,15,0.00